This is the latest recevied weather packets stored in our database for station/object WX2NJ-13. If no packets are shown the sender has not sent any weather packets the latest 10 day(s).
| Time | Temp. | Humidity | Pressure | Rain* | Wind** | Luminosity | Snow |
|---|---|---|---|---|---|---|---|
| 1778082193 | 20° C | 67% | 1010.9 hPa | 0 mm | 0.89 m/s, 125° | - | - |
| 1778081892 | 20° C | 67% | 1010.9 hPa | 0 mm | 1.79 m/s, 167° | - | - |
| 1778081593 | 20° C | 67% | 1010.9 hPa | 0 mm | 1.34 m/s, 181° | - | - |
| 1778081294 | 20° C | 67% | 1010.9 hPa | 0 mm | 1.79 m/s, 191° | - | - |
| 1778080993 | 20° C | 67% | 1011 hPa | 0 mm | 1.34 m/s, 170° | - | - |
| 1778080694 | 20° C | 66% | 1011 hPa | 0 mm | 1.34 m/s, 194° | - | - |
| 1778080395 | 20° C | 66% | 1011 hPa | 0 mm | 0.89 m/s, 162° | - | - |
| 1778080094 | 20° C | 65% | 1011.1 hPa | 0 mm | 1.79 m/s, 159° | - | - |
| 1778079795 | 20.56° C | 65% | 1011.1 hPa | 0 mm | 0.89 m/s, 160° | - | - |
| 1778079497 | 20.56° C | 64% | 1011.1 hPa | 0 mm | 0.89 m/s, 183° | - | - |
| 1778079195 | 20.56° C | 64% | 1011.1 hPa | 0 mm | 1.34 m/s, 188° | - | - |
| 1778078896 | 21.11° C | 64% | 1011.2 hPa | 0 mm | 1.34 m/s, 166° | - | - |
| 1778078598 | 21.11° C | 64% | 1011 hPa | 0 mm | 2.24 m/s, 169° | - | - |
| 1778078296 | 21.11° C | 64% | 1011.1 hPa | 0 mm | 1.34 m/s, 124° | - | - |
| 1778077997 | 21.11° C | 64% | 1011.2 hPa | 0 mm | 1.34 m/s, 180° | - | - |
| 1778077699 | 21.11° C | 64% | 1011.2 hPa | 0 mm | 1.34 m/s, 207° | - | - |
| 1778077397 | 21.11° C | 64% | 1011.1 hPa | 0 mm | 1.34 m/s, 181° | - | - |
| 1778077099 | 21.11° C | 63% | 1011.2 hPa | 0 mm | 0.89 m/s, 179° | - | - |
| 1778076800 | 21.11° C | 63% | 1011.1 hPa | 0 mm | 1.34 m/s, 190° | - | - |
| 1778076498 | 21.67° C | 62% | 1011 hPa | 0 mm | 1.34 m/s, 288° | - | - |
| 1778076200 | 21.67° C | 61% | 1011 hPa | 0 mm | 1.79 m/s, 173° | - | - |
| 1778075901 | 21.67° C | 60% | 1011.2 hPa | 0 mm | 1.79 m/s, 190° | - | - |
| 1778075599 | 21.67° C | 60% | 1011 hPa | 0 mm | 1.79 m/s, 143° | - | - |
| 1778075301 | 21.67° C | 62% | 1011.1 hPa | 0 mm | 1.34 m/s, 155° | - | - |
| 1778075002 | 21.67° C | 62% | 1011.2 hPa | 0 mm | 1.34 m/s, 166° | - | - |
* Rain latest hour (hover to see other rain measurements)
** Current wind speed in m/s (hover to see current wind gust speed)